Date String (YYYY-MM-DD hh:mm:ss) UTC,Instrument flags,absolute air pressure of the measurement (hPa),sample flow rate (lpm),inlet stack bypass flow (lpm),air temperature of the measurement (°C),ambient temperature measured by the external sensor (°C),aerosol sample conditioner tube jacket temperature (°C),OPC LED temperature (°C),internal box temperature (°C),relative humidity of the measurement (%),span deviation,mass concentration of particles derived from Lorenz-Mie calculation of OPC scattering (μg/m³),mass concentration of particles derived from Lorenz-Mie calculation of OPC scattering (μg/m³),mass concentration of particles derived from Lorenz-Mie calculation of OPC scattering (μg/m³)
DateTimeUTC,F1_M11,P_M11,Q1_M11,Q2_M11,T1_M11,T2_M11,T3_M11,T4_M11,T5_M11,U1_M11,ZSPAN_M11,X2_M11,X0_M11,X1_M11
2023-10-14 22:00:00,SystemResetWarning,0836.5,4.99,000.00,028.2,026.8,000.0,036.7,029.8,12.9,0000.9,0005.33,0010.67,0004.99
2023-10-14 22:01:00,SystemResetWarning,0836.5,4.99,000.00,028.2,026.8,000.0,036.7,029.7,12.9,0000.1,0005.35,0010.77,0005.02
2023-10-14 22:02:00,SystemResetWarning,0836.5,5.00,000.00,028.2,026.8,000.0,036.7,029.7,13.0,-000.6,0005.43,0011.45,0005.04
2023-10-14 22:03:00,SystemResetWarning,0836.5,5.00,000.00,028.2,026.8,000.0,036.6,029.7,13.1,-000.2,0005.47,0011.19,0005.08
2023-10-14 22:04:00,SystemResetWarning,0836.5,5.01,000.00,028.2,026.8,000.0,036.6,029.7,13.1,-000.1,0005.53,0010.76,0005.11
2023-10-14 22:05:00,SystemResetWarning,0836.6,5.01,000.00,028.2,026.8,000.0,036.6,029.7,13.1,-000.3,0005.57,0010.76,0005.14
2023-10-14 22:06:00,SystemResetWarning,0836.5,5.00,000.00,028.1,026.7,000.0,036.6,029.7,13.0,-000.5,0005.60,0011.23,0005.17
2023-10-14 22:07:00,SystemResetWarning,0836.5,4.99,000.00,028.1,026.7,000.0,036.6,029.7,13.0,-000.9,0005.62,0011.24,0005.20
2023-10-14 22:08:00,SystemResetWarning,0836.5,4.99,000.00,028.1,026.7,000.0,036.6,029.7,13.1,-000.3,0005.68,0011.40,0005.24
2023-10-14 22:09:00,SystemResetWarning,0836.5,5.00,000.00,028.1,026.7,000.0,036.6,029.7,13.0,0000.2,0005.72,0011.25,0005.27
2023-10-14 22:10:00,SystemResetWarning,0836.5,5.01,000.00,028.1,026.7,000.0,036.6,029.7,13.0,-000.0,0005.71,0011.31,0005.27
2023-10-14 22:11:00,SystemResetWarning,0836.5,5.01,000.00,028.1,026.8,000.0,036.6,029.7,13.1,-000.1,0005.72,0011.55,0005.26
2023-10-14 22:12:00,SystemResetWarning,0836.5,5.00,000.00,028.1,026.8,000.0,036.6,029.7,13.0,0000.0,0005.72,0011.63,0005.25
2023-10-14 22:13:00,SystemResetWarning,0836.5,5.00,000.00,028.1,026.8,000.0,036.6,029.7,13.0,0000.1,0005.69,0010.81,0005.26
2023-10-14 22:14:00,SystemResetWarning,0836.5,5.01,000.00,028.2,026.8,000.0,036.6,029.7,13.0,0000.0,0005.68,0010.06,0005.25
2023-10-14 22:15:00,SystemResetWarning,0836.5,4.99,000.00,028.2,026.8,000.0,036.6,029.7,13.0,-000.2,0005.65,0009.90,0005.24
2023-10-14 22:16:00,SystemResetWarning,0836.5,4.99,000.00,028.2,026.9,000.0,036.6,029.7,13.0,-000.8,0005.61,0009.79,0005.23
2023-10-14 22:17:00,SystemResetWarning,0836.5,4.99,000.00,028.2,026.9,000.0,036.6,029.7,13.0,-000.9,0005.59,0009.15,0005.20
2023-10-14 22:18:00,SystemResetWarning,0836.4,5.00,000.00,028.2,026.9,000.0,036.6,029.7,13.0,-000.8,0005.59,0009.83,0005.19
2023-10-14 22:19:00,SystemResetWarning,0836.4,5.00,000.00,028.2,026.9,000.0,036.6,029.7,13.0,-000.5,0005.56,0010.46,0005.17
2023-10-14 22:20:00,SystemResetWarning,0836.5,5.00,000.00,028.2,026.8,000.0,036.6,029.7,12.9,-000.8,0005.52,0010.39,0005.13
2023-10-14 22:21:00,SystemResetWarning,0836.5,5.00,000.00,028.1,026.8,000.0,036.6,029.7,12.9,-000.4,0005.53,0010.21,0005.10
2023-10-14 22:22:00,SystemResetWarning,0836.5,5.00,000.00,028.1,026.8,000.0,036.6,029.7,12.9,-000.4,0005.51,0009.89,0005.07
2023-10-14 22:23:00,SystemResetWarning,0836.5,5.00,000.00,028.1,026.8,000.0,036.6,029.7,13.0,-001.1,0005.49,0009.76,0005.05
2023-10-14 22:24:00,SystemResetWarning,0836.5,5.00,000.00,028.1,026.8,000.0,036.6,029.7,13.0,-000.4,0005.44,0009.61,0005.04
2023-10-14 22:25:00,SystemResetWarning,0836.5,5.00,000.00,028.2,026.8,000.0,036.6,029.7,13.0,-000.1,0005.40,0009.55,0005.01
2023-10-14 22:26:00,SystemResetWarning,0836.5,4.99,000.00,028.2,026.8,000.0,036.6,029.8,13.0,0000.6,0005.38,0009.77,0004.99
2023-10-14 22:27:00,SystemResetWarning,0836.5,5.00,000.00,028.2,026.9,000.0,036.6,029.8,13.1,0001.3,0005.36,0009.93,0004.99
2023-10-14 22:28:00,SystemResetWarning,0836.5,5.00,000.00,028.2,026.9,000.0,036.6,029.8,13.0,0001.7,0005.38,0010.27,0005.01
2023-10-14 22:29:00,SystemResetWarning,0836.5,5.00,000.00,028.2,026.9,000.0,036.6,029.8,13.0,0001.4,0005.37,0010.23,0005.00
2023-10-14 22:30:00,SystemResetWarning,0836.5,5.00,000.00,028.2,026.9,000.0,036.6,029.8,12.9,0001.8,0005.37,0009.23,0004.97
2023-10-14 22:31:00,SystemResetWarning,0836.5,5.00,000.00,028.2,026.9,000.0,036.6,029.8,12.9,0001.6,0005.37,0010.71,0004.98
2023-10-14 22:32:00,SystemResetWarning,0836.6,5.00,000.00,028.2,026.9,000.0,036.6,029.8,12.9,0001.5,0005.35,0011.11,0004.99
2023-10-14 22:33:00,SystemResetWarning,0836.6,5.00,000.00,028.2,026.9,000.0,036.6,029.8,12.9,0001.2,0005.32,0010.95,0005.01
2023-10-14 22:34:00,SystemResetWarning,0836.6,5.00,000.00,028.2,026.9,000.0,036.6,029.8,12.9,0001.9,0005.33,0011.06,0005.01
2023-10-14 22:35:00,SystemResetWarning,0836.6,5.00,000.00,028.2,026.9,000.0,036.6,029.8,13.0,0001.9,0005.37,0011.25,0005.02
2023-10-14 22:36:00,SystemResetWarning,0836.6,5.00,000.00,028.2,026.9,000.0,036.6,029.8,13.1,0001.6,0005.39,0011.28,0005.04
2023-10-14 22:37:00,SystemResetWarning,0836.6,5.00,000.00,028.2,026.9,000.0,036.6,029.8,13.1,0001.8,0005.37,0011.70,0005.04
2023-10-14 22:38:00,SystemResetWarning,0836.6,5.00,000.00,028.2,026.9,000.0,036.6,029.8,13.1,0001.8,0005.38,0011.73,0005.03
2023-10-14 22:39:00,SystemResetWarning,0836.6,5.01,000.00,028.2,026.9,000.0,036.6,029.8,13.1,0001.8,0005.34,0011.68,0005.00
2023-10-14 22:40:00,SystemResetWarning,0836.6,4.99,000.00,028.2,026.9,000.0,036.6,029.9,13.0,0002.0,0005.33,0011.90,0004.99
2023-10-14 22:41:00,SystemResetWarning,0836.7,4.99,000.00,028.2,026.9,000.0,036.7,029.9,12.9,0001.3,0005.34,0012.06,0005.00
2023-10-14 22:42:00,SystemResetWarning,0836.7,5.00,000.00,028.2,026.9,000.0,036.7,029.8,13.0,0001.3,0005.35,0011.41,0005.00
2023-10-14 22:43:00,SystemResetWarning,0836.7,5.01,000.00,028.2,026.9,000.0,036.7,029.8,13.0,0000.7,0005.34,0010.79,0004.99
2023-10-14 22:44:00,SystemResetWarning,0836.8,5.01,000.00,028.2,026.9,000.0,036.7,029.8,13.0,0000.0,0005.30,0010.85,0004.97
2023-10-14 22:45:00,SystemResetWarning,0836.8,5.00,000.00,028.2,026.9,000.0,036.7,029.8,13.0,0000.0,0005.29,0010.79,0004.97
2023-10-14 22:46:00,SystemResetWarning,0836.8,5.00,000.00,028.2,026.9,000.0,036.7,029.8,13.0,0000.0,0005.25,0010.61,0004.96
2023-10-14 22:47:00,SystemResetWarning,0836.8,5.00,000.00,028.2,026.9,000.0,036.7,029.8,13.0,0000.0,0005.25,0010.64,0004.93
2023-10-14 22:48:00,SystemResetWarning,0836.8,5.00,000.00,028.2,026.9,000.0,036.7,029.8,13.1,0000.0,0005.25,0010.03,0004.93
2023-10-14 22:49:00,SystemResetWarning,0836.8,5.00,000.00,028.2,026.9,000.0,036.7,029.8,13.1,0000.4,0005.26,0009.78,0004.94
2023-10-14 22:50:00,SystemResetWarning,0836.8,5.00,000.00,028.2,026.9,000.0,036.7,029.8,13.1,0000.3,0005.26,0009.91,0004.94
2023-10-14 22:51:00,SystemResetWarning,0836.8,5.00,000.00,028.2,026.8,000.0,036.7,029.8,13.1,0000.3,0005.25,0009.42,0004.94
2023-10-14 22:52:00,SystemResetWarning,0836.8,5.00,000.00,028.2,026.8,000.0,036.7,029.8,13.1,0000.0,0005.22,0009.36,0004.93
2023-10-14 22:53:00,SystemResetWarning,0836.9,5.00,000.00,028.2,026.8,000.0,036.7,029.8,13.2,0000.5,0005.19,0009.04,0004.92
2023-10-14 22:54:00,SystemResetWarning,0836.9,5.00,000.00,028.2,026.8,000.0,036.7,029.8,13.2,0000.9,0005.17,0008.57,0004.91
2023-10-14 22:55:00,SystemResetWarning,0837.0,5.00,000.00,028.2,026.8,000.0,036.7,029.7,13.3,0000.9,0005.24,0008.85,0004.92
2023-10-14 22:56:00,SystemResetWarning,0836.9,5.00,000.00,028.2,026.8,000.0,036.7,029.8,13.3,0000.9,0005.28,0008.79,0004.94
2023-10-14 22:57:00,SystemResetWarning,0836.9,5.00,000.00,028.2,026.7,000.0,036.7,029.7,13.3,0001.3,0005.32,0009.07,0004.96
2023-10-14 22:58:00,SystemResetWarning,0836.9,5.00,000.00,028.2,026.7,000.0,036.7,029.7,13.3,0001.1,0005.33,0010.17,0004.98
2023-10-14 22:59:00,SystemResetWarning,0836.9,5.00,000.00,028.1,026.7,000.0,036.7,029.7,13.3,0000.0,0005.35,0010.31,0004.99
